User: anonymous   Login
Location: Unspecified
(0.0000°N, 0.0000°E)
Time: 07:23:05
(UTC+00:00)
Language:

OPTUS D3 - Orbit

View from above orbital plane
View from above orbital plane
View from above satellite
View from above satellite

Ground track
Ground track

The orbit data is extracted from the following two-line orbital elements,

1 35756U 09044B   21215.74752569 -.00000143  00000-0  00000-0 0  9998
2 35756   0.0435 330.1501 0002600 150.3334 257.1546  1.00272487 43727
Epoch (UTC): 03 August 2021 17:56:26
Eccentricity: 0.0002600
inclination: 0.0435°
perigee height: 35775 km
apogee height: 35797 km
right ascension of ascending node: 330.1501°
argument of perigee: 150.3334°
revolutions per day: 1.00272487
mean anomaly at epoch: 257.1546°
orbit number at epoch: 4372

The dashed part of the orbit path shows where the satellite is in the earth's shadow,  

DLR